Time,TemperatureF,DewpointF,PressureIn,WindDirection,WindDirectionDegrees,WindSpeedMPH,WindSpeedGustMPH,Humidity,HourlyPrecipIn,Conditions,Clouds,dailyrainin,SoftwareType,DateUTC
2013-05-22 00:02:00,50.0,36.7,29.83,WNW,292,1.0,10.0,60,0.00,,,0.00,meteohub,2013-05-22 07:02:00,
2013-05-22 00:07:00,50.0,36.3,29.83,WNW,288,0.0,10.0,59,0.00,,,0.00,meteohub,2013-05-22 07:07:00,
2013-05-22 00:12:00,49.8,36.5,29.84,West,275,0.0,10.0,60,0.00,,,0.00,meteohub,2013-05-22 07:12:00,
2013-05-22 00:17:00,49.6,36.0,29.84,WSW,251,5.0,10.0,59,0.00,,,0.00,meteohub,2013-05-22 07:17:00,
2013-05-22 00:22:00,49.6,36.0,29.84,SW,216,1.0,10.0,59,0.00,,,0.00,meteohub,2013-05-22 07:22:00,
2013-05-22 00:27:00,49.5,35.8,29.84,SW,232,4.0,7.0,59,0.00,,,0.00,meteohub,2013-05-22 07:27:00,
2013-05-22 00:32:00,49.5,36.1,29.84,WSW,240,4.0,7.0,60,0.00,,,0.00,meteohub,2013-05-22 07:32:00,
2013-05-22 00:37:00,49.3,36.0,29.84,WSW,240,3.0,6.0,60,0.00,,,0.00,meteohub,2013-05-22 07:37:00,
2013-05-22 00:42:00,49.3,36.0,29.84,WSW,242,3.0,7.0,60,0.00,,,0.00,meteohub,2013-05-22 07:42:00,
2013-05-22 00:47:00,48.9,35.6,29.84,WSW,242,0.0,7.0,60,0.00,,,0.00,meteohub,2013-05-22 07:47:00,
2013-05-22 00:52:00,48.9,35.2,29.84,WSW,246,0.0,7.0,59,0.00,,,0.00,meteohub,2013-05-22 07:52:00,
2013-05-22 00:57:00,48.7,35.1,29.84,WSW,246,2.0,5.0,59,0.00,,,0.00,meteohub,2013-05-22 07:57:00,
2013-05-22 01:02:00,48.7,35.1,29.84,SW,232,5.0,6.0,59,0.00,,,0.00,meteohub,2013-05-22 08:02:00,
2013-05-22 01:07:00,48.7,34.7,29.84,SW,234,2.0,6.0,58,0.00,,,0.00,meteohub,2013-05-22 08:07:00,
2013-05-22 01:12:00,48.7,34.7,29.84,WNW,299,4.0,6.0,58,0.00,,,0.00,meteohub,2013-05-22 08:12:00,
2013-05-22 01:17:00,48.7,34.7,29.84,WNW,298,0.0,9.0,58,0.00,,,0.00,meteohub,2013-05-22 08:17:00,
2013-05-22 01:22:00,48.6,34.5,29.84,NW,306,3.0,9.0,58,0.00,,,0.00,meteohub,2013-05-22 08:22:00,
2013-05-22 01:27:00,48.4,34.3,29.85,NW,306,1.0,6.0,58,0.00,,,0.00,meteohub,2013-05-22 08:27:00,
2013-05-22 01:32:00,48.4,34.3,29.85,WSW,237,0.0,6.0,58,0.00,,,0.00,meteohub,2013-05-22 08:32:00,
2013-05-22 01:37:00,48.2,33.6,29.85,SW,227,3.0,7.0,57,0.00,,,0.00,meteohub,2013-05-22 08:37:00,
2013-05-22 01:42:00,48.2,33.6,29.84,SW,227,1.0,7.0,57,0.00,,,0.00,meteohub,2013-05-22 08:42:00,
2013-05-22 01:47:00,48.0,33.4,29.84,West,266,2.0,7.0,57,0.00,,,0.00,meteohub,2013-05-22 08:47:00,
2013-05-22 01:52:00,47.8,33.3,29.84,West,267,0.0,7.0,57,0.00,,,0.00,meteohub,2013-05-22 08:52:00,
2013-05-22 01:57:00,47.7,33.3,29.85,West,264,2.0,7.0,57,0.00,,,0.00,meteohub,2013-05-22 08:57:00,
2013-05-22 02:02:00,47.5,33.1,29.85,SW,236,2.0,5.0,57,0.00,,,0.00,meteohub,2013-05-22 09:02:00,
2013-05-22 02:07:00,47.5,33.1,29.85,SW,236,2.0,6.0,57,0.00,,,0.00,meteohub,2013-05-22 09:07:00,
2013-05-22 02:12:00,47.5,33.1,29.84,WNW,289,7.0,10.0,57,0.00,,,0.00,meteohub,2013-05-22 09:12:00,
2013-05-22 02:17:00,47.5,33.1,29.84,WNW,288,3.0,10.0,57,0.00,,,0.00,meteohub,2013-05-22 09:17:00,
2013-05-22 02:22:00,47.5,33.1,29.84,WNW,284,3.0,10.0,57,0.00,,,0.00,meteohub,2013-05-22 09:22:00,
2013-05-22 02:27:00,47.1,32.7,29.85,WNW,284,0.0,7.0,57,0.00,,,0.00,meteohub,2013-05-22 09:27:00,
2013-05-22 02:32:00,47.1,32.7,29.85,WNW,284,0.0,7.0,57,0.00,,,0.00,meteohub,2013-05-22 09:32:00,
2013-05-22 02:37:00,46.9,32.9,29.85,WNW,284,0.0,5.0,58,0.00,,,0.00,meteohub,2013-05-22 09:37:00,
2013-05-22 02:42:00,46.8,32.7,29.85,WNW,284,0.0,5.0,58,0.00,,,0.00,meteohub,2013-05-22 09:42:00,
2013-05-22 02:47:00,46.6,33.1,29.85,WNW,284,0.0,3.0,59,0.00,,,0.00,meteohub,2013-05-22 09:47:00,
2013-05-22 02:52:00,46.2,32.7,29.85,WNW,284,0.0,2.0,59,0.00,,,0.00,meteohub,2013-05-22 09:52:00,
2013-05-22 02:58:00,45.9,32.7,29.86,WNW,284,0.0,3.0,60,0.00,,,0.00,meteohub,2013-05-22 09:58:00,
2013-05-22 03:03:00,45.7,32.5,29.86,WNW,284,1.0,3.0,60,0.00,,,0.00,meteohub,2013-05-22 10:03:00,
2013-05-22 03:08:00,45.7,32.2,29.86,WNW,284,0.0,3.0,59,0.00,,,0.00,meteohub,2013-05-22 10:08:00,
2013-05-22 03:13:00,45.7,32.2,29.85,WNW,284,0.0,3.0,59,0.00,,,0.00,meteohub,2013-05-22 10:13:00,
2013-05-22 03:18:00,45.7,32.2,29.85,WNW,290,1.0,3.0,59,0.00,,,0.00,meteohub,2013-05-22 10:18:00,
2013-05-22 03:23:00,45.7,32.2,29.85,West,261,0.0,9.0,59,0.00,,,0.00,meteohub,2013-05-22 10:23:00,
2013-05-22 03:28:00,45.7,32.2,29.85,WSW,255,3.0,9.0,59,0.00,,,0.00,meteohub,2013-05-22 10:28:00,
2013-05-22 03:33:00,45.7,32.2,29.85,WSW,244,4.0,9.0,59,0.00,,,0.00,meteohub,2013-05-22 10:33:00,
2013-05-22 03:38:00,45.9,32.4,29.85,WSW,243,0.0,6.0,59,0.00,,,0.00,meteohub,2013-05-22 10:38:00,
2013-05-22 03:43:00,45.7,31.8,29.85,WSW,244,1.0,5.0,58,0.00,,,0.00,meteohub,2013-05-22 10:43:00,
2013-05-22 03:48:00,45.7,32.2,29.85,WSW,245,1.0,5.0,59,0.00,,,0.00,meteohub,2013-05-22 10:48:00,
2013-05-22 03:53:00,45.5,32.0,29.85,WSW,245,0.0,4.0,59,0.00,,,0.00,meteohub,2013-05-22 10:53:00,
2013-05-22 03:58:00,45.3,31.8,29.86,WSW,246,3.0,4.0,59,0.00,,,0.00,meteohub,2013-05-22 10:58:00,
2013-05-22 04:03:00,45.1,31.6,29.86,WSW,246,0.0,5.0,59,0.00,,,0.00,meteohub,2013-05-22 11:03:00,
2013-05-22 04:08:00,45.3,31.8,29.86,WSW,242,2.0,5.0,59,0.00,,,0.00,meteohub,2013-05-22 11:08:00,
2013-05-22 04:13:00,45.3,31.8,29.86,WSW,246,0.0,7.0,59,0.00,,,0.00,meteohub,2013-05-22 11:13:00,
2013-05-22 04:18:00,45.1,31.6,29.86,WSW,246,1.0,7.0,59,0.00,,,0.00,meteohub,2013-05-22 11:18:00,
2013-05-22 04:23:00,45.0,32.0,29.86,WSW,246,0.0,6.0,60,0.00,,,0.00,meteohub,2013-05-22 11:23:00,
2013-05-22 04:29:00,44.8,31.8,29.86,WSW,246,0.0,3.0,60,0.00,,,0.00,meteohub,2013-05-22 11:29:00,
2013-05-22 04:34:00,44.4,31.8,29.86,WSW,246,0.0,3.0,61,0.00,,,0.00,meteohub,2013-05-22 11:34:00,
2013-05-22 04:39:00,44.4,31.8,29.86,WSW,246,0.0,4.0,61,0.00,,,0.00,meteohub,2013-05-22 11:39:00,
2013-05-22 04:44:00,44.1,31.8,29.86,WSW,246,0.0,4.0,62,0.00,,,0.00,meteohub,2013-05-22 11:44:00,
2013-05-22 04:49:00,43.5,31.3,29.86,WSW,246,0.0,3.0,62,0.00,,,0.00,meteohub,2013-05-22 11:49:00,
2013-05-22 04:54:00,43.3,31.6,29.86,WSW,246,0.0,1.0,63,0.00,,,0.00,meteohub,2013-05-22 11:54:00,
2013-05-22 04:59:00,43.0,32.0,29.86,WSW,246,0.0,1.0,65,0.00,,,0.00,meteohub,2013-05-22 11:59:00,
2013-05-22 05:04:00,42.8,31.8,29.86,WSW,246,0.0,0.0,65,0.00,,,0.00,meteohub,2013-05-22 12:04:00,
2013-05-22 05:09:00,42.4,31.8,29.86,WSW,246,0.0,1.0,66,0.00,,,0.00,meteohub,2013-05-22 12:09:00,
2013-05-22 05:14:00,42.3,31.6,29.86,WSW,246,0.0,1.0,66,0.00,,,0.00,meteohub,2013-05-22 12:14:00,
2013-05-22 05:19:00,41.7,31.6,29.86,WSW,246,0.0,0.0,67,0.00,,,0.00,meteohub,2013-05-22 12:19:00,
2013-05-22 05:24:00,41.4,31.6,29.86,WSW,246,0.0,0.0,68,0.00,,,0.00,meteohub,2013-05-22 12:24:00,
2013-05-22 05:29:00,41.2,31.8,29.87,WSW,246,0.0,1.0,69,0.00,,,0.00,meteohub,2013-05-22 12:29:00,
2013-05-22 05:34:00,40.8,31.5,29.87,WSW,246,0.0,1.0,69,0.00,,,0.00,meteohub,2013-05-22 12:34:00,
2013-05-22 05:39:00,40.6,31.6,29.87,WSW,246,0.0,1.0,70,0.00,,,0.00,meteohub,2013-05-22 12:39:00,
2013-05-22 05:44:00,40.6,31.6,29.87,WSW,246,0.0,0.0,70,0.00,,,0.00,meteohub,2013-05-22 12:44:00,
2013-05-22 05:49:00,40.5,31.5,29.87,WSW,246,0.0,0.0,70,0.00,,,0.00,meteohub,2013-05-22 12:49:00,
2013-05-22 05:54:00,40.5,31.8,29.87,WSW,246,0.0,0.0,71,0.00,,,0.00,meteohub,2013-05-22 12:54:00,
2013-05-22 05:59:00,40.3,31.6,29.88,WSW,246,0.0,0.0,71,0.00,,,0.00,meteohub,2013-05-22 12:59:00,
2013-05-22 06:04:00,40.1,31.5,29.88,WSW,246,0.0,0.0,71,0.00,,,0.00,meteohub,2013-05-22 13:04:00,
2013-05-22 06:09:00,39.7,31.5,29.88,WSW,246,0.0,0.0,72,0.00,,,0.00,meteohub,2013-05-22 13:09:00,
2013-05-22 06:14:00,39.7,31.5,29.88,WSW,246,0.0,0.0,72,0.00,,,0.00,meteohub,2013-05-22 13:14:00,
2013-05-22 06:19:00,39.4,31.5,29.88,WSW,246,0.0,0.0,73,0.00,,,0.00,meteohub,2013-05-22 13:19:00,
2013-05-22 06:24:00,39.0,31.1,29.88,WSW,246,0.0,0.0,73,0.00,,,0.00,meteohub,2013-05-22 13:24:00,
2013-05-22 06:29:00,38.8,31.3,29.88,WSW,246,0.0,0.0,74,0.00,,,0.00,meteohub,2013-05-22 13:29:00,
2013-05-22 06:34:00,38.7,31.5,29.88,WSW,246,0.0,0.0,75,0.00,,,0.00,meteohub,2013-05-22 13:34:00,
2013-05-22 06:39:00,38.7,31.5,29.88,WSW,246,0.0,1.0,75,0.00,,,0.00,meteohub,2013-05-22 13:39:00,
2013-05-22 06:44:00,39.6,32.0,29.88,WSW,246,0.0,1.0,74,0.00,,,0.00,meteohub,2013-05-22 13:44:00,
2013-05-22 06:49:00,40.1,32.2,29.88,ESE,110,0.0,2.0,73,0.00,,,0.00,meteohub,2013-05-22 13:49:00,
2013-05-22 06:54:00,40.5,32.2,29.88,ESE,110,0.0,2.0,72,0.00,,,0.00,meteohub,2013-05-22 13:54:00,
2013-05-22 06:59:00,40.8,32.2,29.88,ESE,110,0.0,2.0,71,0.00,,,0.00,meteohub,2013-05-22 13:59:00,
2013-05-22 07:04:00,41.5,32.5,29.88,ESE,110,1.0,2.0,70,0.00,,,0.00,meteohub,2013-05-22 14:04:00,
2013-05-22 07:09:00,42.6,32.4,29.88,ESE,110,0.0,4.0,67,0.00,,,0.00,meteohub,2013-05-22 14:09:00,
2013-05-22 07:14:00,43.9,32.5,29.88,ESE,110,0.0,4.0,64,0.00,,,0.00,meteohub,2013-05-22 14:14:00,
2013-05-22 07:19:00,44.8,32.5,29.88,ESE,110,0.0,5.0,62,0.00,,,0.00,meteohub,2013-05-22 14:19:00,
2013-05-22 07:24:00,45.7,33.1,29.88,SSE,162,0.0,5.0,61,0.00,,,0.00,meteohub,2013-05-22 14:24:00,
2013-05-22 07:29:00,46.2,32.7,29.89,South,175,0.0,5.0,59,0.00,,,0.00,meteohub,2013-05-22 14:29:00,
2013-05-22 07:34:00,46.8,32.7,29.89,SW,225,0.0,5.0,58,0.00,,,0.00,meteohub,2013-05-22 14:34:00,
2013-05-22 07:39:00,47.3,33.3,29.89,SW,220,2.0,7.0,58,0.00,,,0.00,meteohub,2013-05-22 14:39:00,
2013-05-22 07:44:00,47.7,33.3,29.89,SW,220,1.0,7.0,57,0.00,,,0.00,meteohub,2013-05-22 14:44:00,
2013-05-22 07:49:00,48.0,33.1,29.89,South,188,0.0,7.0,56,0.00,,,0.00,meteohub,2013-05-22 14:49:00,
2013-05-22 07:54:00,48.4,32.9,29.89,SSW,196,1.0,6.0,55,0.00,,,0.00,meteohub,2013-05-22 14:54:00,
2013-05-22 07:59:00,48.6,33.1,29.88,South,180,3.0,6.0,55,0.00,,,0.00,meteohub,2013-05-22 14:59:00,
2013-05-22 08:04:00,48.7,32.9,29.88,SSW,192,1.0,6.0,54,0.00,,,0.00,meteohub,2013-05-22 15:04:00,
2013-05-22 08:09:00,49.1,33.3,29.88,SW,235,0.0,6.0,54,0.00,,,0.00,meteohub,2013-05-22 15:09:00,
2013-05-22 08:14:00,49.5,33.4,29.88,SW,232,2.0,7.0,54,0.00,,,0.00,meteohub,2013-05-22 15:14:00,
2013-05-22 08:19:00,49.8,33.8,29.88,WSW,240,2.0,7.0,54,0.00,,,0.00,meteohub,2013-05-22 15:19:00,
2013-05-22 08:24:00,50.2,33.6,29.88,WSW,239,2.0,7.0,53,0.00,,,0.00,meteohub,2013-05-22 15:24:00,
2013-05-22 08:29:00,50.7,34.2,29.88,WSW,238,1.0,6.0,53,0.00,,,0.00,meteohub,2013-05-22 15:29:00,
2013-05-22 08:34:00,51.3,34.2,29.88,SW,227,0.0,4.0,52,0.00,,,0.00,meteohub,2013-05-22 15:34:00,
2013-05-22 08:39:00,52.0,34.0,29.88,WSW,256,2.0,7.0,50,0.00,,,0.00,meteohub,2013-05-22 15:39:00,
2013-05-22 08:44:00,52.3,33.3,29.88,SSE,160,0.0,7.0,48,0.00,,,0.00,meteohub,2013-05-22 15:44:00,
2013-05-22 08:49:00,53.1,33.4,29.88,SSW,196,0.0,7.0,47,0.00,,,0.00,meteohub,2013-05-22 15:49:00,
2013-05-22 08:54:00,53.4,33.1,29.88,SSW,207,1.0,7.0,46,0.00,,,0.00,meteohub,2013-05-22 15:54:00,
2013-05-22 08:59:00,54.0,33.6,29.88,South,190,1.0,7.0,46,0.00,,,0.00,meteohub,2013-05-22 15:59:00,
2013-05-22 09:04:00,54.1,33.3,29.88,South,190,3.0,5.0,45,0.00,,,0.00,meteohub,2013-05-22 16:04:00,
2013-05-22 09:09:00,54.5,33.1,29.88,NNE,19,1.0,4.0,44,0.00,,,0.00,meteohub,2013-05-22 16:09:00,
2013-05-22 09:14:00,54.9,32.2,29.88,NNE,22,3.0,10.0,42,0.00,,,0.00,meteohub,2013-05-22 16:14:00,
2013-05-22 09:19:00,55.2,32.5,29.88,NE,39,1.0,10.0,42,0.00,,,0.00,meteohub,2013-05-22 16:19:00,
2013-05-22 09:24:00,56.1,33.3,29.88,NE,39,1.0,10.0,42,0.00,,,0.00,meteohub,2013-05-22 16:24:00,
2013-05-22 09:29:00,56.5,33.1,29.88,North,0,0.0,4.0,41,0.00,,,0.00,meteohub,2013-05-22 16:29:00,
2013-05-22 09:34:00,56.7,33.3,29.88,North,355,1.0,4.0,41,0.00,,,0.00,meteohub,2013-05-22 16:34:00,
2013-05-22 09:39:00,57.0,32.4,29.88,North,355,0.0,4.0,39,0.00,,,0.00,meteohub,2013-05-22 16:39:00,
2013-05-22 09:44:00,57.6,34.0,29.88,North,355,0.0,4.0,41,0.00,,,0.00,meteohub,2013-05-22 16:44:00,
2013-05-22 09:49:00,57.7,32.4,29.88,South,179,5.0,5.0,38,0.00,,,0.00,meteohub,2013-05-22 16:49:00,
2013-05-22 09:54:00,57.7,32.9,29.88,South,188,1.0,10.0,39,0.00,,,0.00,meteohub,2013-05-22 16:54:00,
2013-05-22 09:59:00,58.1,32.5,29.88,SSW,204,3.0,10.0,38,0.00,,,0.00,meteohub,2013-05-22 16:59:00,
2013-05-22 10:04:00,58.3,33.4,29.88,SSW,208,1.0,10.0,39,0.00,,,0.00,meteohub,2013-05-22 17:04:00,
2013-05-22 10:09:00,58.5,32.4,29.87,WSW,246,2.0,6.0,37,0.00,,,0.00,meteohub,2013-05-22 17:09:00,
2013-05-22 10:14:00,58.5,32.9,29.87,WSW,250,0.0,6.0,38,0.00,,,0.00,meteohub,2013-05-22 17:14:00,
2013-05-22 10:19:00,58.6,32.4,29.87,WSW,249,0.0,7.0,37,0.00,,,0.00,meteohub,2013-05-22 17:19:00,
2013-05-22 10:24:00,59.2,32.9,29.87,WSW,257,0.0,7.0,37,0.00,,,0.00,meteohub,2013-05-22 17:24:00,
2013-05-22 10:29:00,59.7,33.4,29.87,West,265,1.0,7.0,37,0.00,,,0.00,meteohub,2013-05-22 17:29:00,
2013-05-22 10:34:00,60.1,32.4,29.87,North,350,0.0,7.0,35,0.00,,,0.00,meteohub,2013-05-22 17:34:00,
2013-05-22 10:39:00,60.3,33.3,29.86,NNW,337,2.0,9.0,36,0.00,,,0.00,meteohub,2013-05-22 17:39:00,
2013-05-22 10:44:00,60.6,29.8,29.86,SW,233,1.0,9.0,31,0.00,,,0.00,meteohub,2013-05-22 17:44:00,
2013-05-22 10:49:00,61.2,29.5,29.86,SW,233,2.0,9.0,30,0.00,,,0.00,meteohub,2013-05-22 17:49:00,
2013-05-22 10:54:00,61.5,31.5,29.86,SW,234,0.0,5.0,32,0.00,,,0.00,meteohub,2013-05-22 17:54:00,
2013-05-22 10:59:00,62.1,31.8,29.86,SW,234,0.0,5.0,32,0.00,,,0.00,meteohub,2013-05-22 17:59:00,
2013-05-22 11:04:00,61.9,28.4,29.86,SW,231,2.0,4.0,28,0.00,,,0.00,meteohub,2013-05-22 18:04:00,
2013-05-22 11:09:00,61.9,29.3,29.86,SW,221,2.0,4.0,29,0.00,,,0.00,meteohub,2013-05-22 18:09:00,
2013-05-22 11:14:00,62.2,28.8,29.86,SW,228,0.0,4.0,28,0.00,,,0.00,meteohub,2013-05-22 18:14:00,
2013-05-22 11:19:00,62.8,30.9,29.86,SW,232,5.0,5.0,30,0.00,,,0.00,meteohub,2013-05-22 18:19:00,
2013-05-22 11:24:00,62.6,29.8,29.86,WSW,244,1.0,5.0,29,0.00,,,0.00,meteohub,2013-05-22 18:24:00,
2013-05-22 11:29:00,63.0,27.5,29.86,WSW,246,3.0,6.0,26,0.00,,,0.00,meteohub,2013-05-22 18:29:00,
2013-05-22 11:35:00,63.0,26.6,29.86,WNW,284,4.0,6.0,25,0.00,,,0.00,meteohub,2013-05-22 18:35:00,
2013-05-22 11:40:00,63.0,31.8,29.85,WNW,282,3.0,6.0,31,0.00,,,0.00,meteohub,2013-05-22 18:40:00,
2013-05-22 11:45:00,63.0,28.4,29.85,West,281,1.0,6.0,27,0.00,,,0.00,meteohub,2013-05-22 18:45:00,
2013-05-22 11:50:00,63.1,32.0,29.85,West,281,2.0,6.0,31,0.00,,,0.00,meteohub,2013-05-22 18:50:00,
2013-05-22 11:55:00,63.5,30.7,29.84,NW,315,1.0,6.0,29,0.00,,,0.00,meteohub,2013-05-22 18:55:00,
2013-05-22 12:00:00,63.1,30.4,29.84,SW,220,4.0,6.0,29,0.00,,,0.00,meteohub,2013-05-22 19:00:00,
2013-05-22 12:05:00,62.8,30.9,29.84,SW,229,1.0,10.0,30,0.00,,,0.00,meteohub,2013-05-22 19:05:00,
2013-05-22 12:10:00,63.1,30.4,29.84,West,262,0.0,10.0,29,0.00,,,0.00,meteohub,2013-05-22 19:10:00,
2013-05-22 12:15:00,63.5,28.0,29.84,West,279,0.0,10.0,26,0.00,,,0.00,meteohub,2013-05-22 19:15:00,
2013-05-22 12:20:00,64.0,30.2,29.84,WNW,288,7.0,7.0,28,0.00,,,0.00,meteohub,2013-05-22 19:20:00,
2013-05-22 12:25:00,63.7,31.6,29.84,West,267,5.0,6.0,30,0.00,,,0.00,meteohub,2013-05-22 19:25:00,
2013-05-22 12:30:00,63.3,30.6,29.84,West,267,1.0,11.0,29,0.00,,,0.00,meteohub,2013-05-22 19:30:00,
2013-05-22 12:35:00,63.9,30.9,29.84,West,274,2.0,11.0,29,0.00,,,0.00,meteohub,2013-05-22 19:35:00,
2013-05-22 12:41:00,63.9,31.8,29.83,WNW,290,2.0,11.0,30,0.00,,,0.00,meteohub,2013-05-22 19:41:00,
2013-05-22 12:46:00,64.0,32.0,29.83,West,275,3.0,11.0,30,0.00,,,0.00,meteohub,2013-05-22 19:46:00,
2013-05-22 12:51:00,63.9,30.9,29.83,West,277,1.0,11.0,29,0.00,,,0.00,meteohub,2013-05-22 19:51:00,
2013-05-22 12:56:00,64.0,31.1,29.83,WNW,293,3.0,11.0,29,0.00,,,0.00,meteohub,2013-05-22 19:56:00,
2013-05-22 13:01:00,64.0,32.0,29.83,WNW,294,4.0,10.0,30,0.00,,,0.00,meteohub,2013-05-22 20:01:00,
2013-05-22 13:06:00,64.0,31.1,29.83,WNW,296,4.0,10.0,29,0.00,,,0.00,meteohub,2013-05-22 20:06:00,
2013-05-22 13:11:00,64.4,31.5,29.83,WNW,283,0.0,9.0,29,0.00,,,0.00,meteohub,2013-05-22 20:11:00,
2013-05-22 13:16:00,64.9,32.0,29.83,WNW,285,4.0,9.0,29,0.00,,,0.00,meteohub,2013-05-22 20:16:00,
2013-05-22 13:21:00,65.3,32.2,29.83,WNW,282,2.0,8.0,29,0.00,,,0.00,meteohub,2013-05-22 20:21:00,
2013-05-22 13:26:00,65.7,32.5,29.82,WNW,288,1.0,7.0,29,0.00,,,0.00,meteohub,2013-05-22 20:26:00,
2013-05-22 13:31:00,65.8,31.8,29.82,WNW,288,1.0,7.0,28,0.00,,,0.00,meteohub,2013-05-22 20:31:00,
2013-05-22 13:36:00,66.4,33.1,29.82,NW,309,1.0,5.0,29,0.00,,,0.00,meteohub,2013-05-22 20:36:00,
2013-05-22 13:41:00,66.7,33.4,29.81,WSW,255,1.0,6.0,29,0.00,,,0.00,meteohub,2013-05-22 20:41:00,
2013-05-22 13:46:00,66.7,33.4,29.81,WNW,289,1.0,7.0,29,0.00,,,0.00,meteohub,2013-05-22 20:46:00,
2013-05-22 13:51:00,66.7,31.6,29.81,NNE,29,0.0,7.0,27,0.00,,,0.00,meteohub,2013-05-22 20:51:00,
2013-05-22 13:56:00,66.7,31.6,29.81,NW,311,3.0,7.0,27,0.00,,,0.00,meteohub,2013-05-22 20:56:00,
2013-05-22 14:01:00,66.7,33.4,29.81,ENE,59,2.0,7.0,29,0.00,,,0.00,meteohub,2013-05-22 21:01:00,
2013-05-22 14:06:00,67.1,32.0,29.81,SW,223,3.0,7.0,27,0.00,,,0.00,meteohub,2013-05-22 21:06:00,
2013-05-22 14:11:00,66.6,31.5,29.81,West,281,3.0,13.0,27,0.00,,,0.00,meteohub,2013-05-22 21:11:00,
2013-05-22 14:16:00,66.6,32.4,29.81,West,279,1.0,13.0,28,0.00,,,0.00,meteohub,2013-05-22 21:16:00,
2013-05-22 14:21:00,67.1,32.0,29.81,NNW,329,4.0,13.0,27,0.00,,,0.00,meteohub,2013-05-22 21:21:00,
2013-05-22 14:26:00,67.3,34.7,29.80,NNW,328,2.0,6.0,30,0.00,,,0.00,meteohub,2013-05-22 21:26:00,
2013-05-22 14:31:00,66.9,35.2,29.80,West,279,1.0,8.0,31,0.00,,,0.00,meteohub,2013-05-22 21:31:00,
2013-05-22 14:36:00,66.9,35.2,29.80,WNW,283,0.0,8.0,31,0.00,,,0.00,meteohub,2013-05-22 21:36:00,
2013-05-22 14:41:00,67.1,37.0,29.79,West,275,2.0,8.0,33,0.00,,,0.00,meteohub,2013-05-22 21:41:00,
2013-05-22 14:46:00,67.3,37.9,29.79,NNW,342,3.0,11.0,34,0.00,,,0.00,meteohub,2013-05-22 21:46:00,
2013-05-22 14:51:00,67.5,38.8,29.79,NW,309,2.0,11.0,35,0.00,,,0.00,meteohub,2013-05-22 21:51:00,
2013-05-22 14:56:00,67.3,37.9,29.79,WNW,286,1.0,7.0,34,0.00,,,0.00,meteohub,2013-05-22 21:56:00,
2013-05-22 15:01:00,66.9,39.0,29.79,West,276,1.0,11.0,36,0.00,,,0.00,meteohub,2013-05-22 22:01:00,
2013-05-22 15:06:00,66.7,37.4,29.79,WNW,297,2.0,11.0,34,0.00,,,0.00,meteohub,2013-05-22 22:06:00,
2013-05-22 15:11:00,66.7,36.7,29.79,NW,313,3.0,11.0,33,0.00,,,0.00,meteohub,2013-05-22 22:11:00,
2013-05-22 15:16:00,66.0,36.9,29.79,West,270,3.0,9.0,34,0.00,,,0.00,meteohub,2013-05-22 22:16:00,
2013-05-22 15:21:00,66.6,36.5,29.79,NW,304,3.0,12.0,33,0.00,,,0.00,meteohub,2013-05-22 22:21:00,
2013-05-22 15:26:00,66.4,35.6,29.78,North,350,4.0,12.0,32,0.00,,,0.00,meteohub,2013-05-22 22:26:00,
2013-05-22 15:31:00,65.7,35.8,29.78,West,281,2.0,11.0,33,0.00,,,0.00,meteohub,2013-05-22 22:31:00,
2013-05-22 15:36:00,65.7,35.8,29.78,West,276,10.0,13.0,33,0.00,,,0.00,meteohub,2013-05-22 22:36:00,
2013-05-22 15:41:00,65.5,36.3,29.78,West,276,2.0,13.0,34,0.00,,,0.00,meteohub,2013-05-22 22:41:00,
2013-05-22 15:46:00,66.2,36.3,29.78,NW,325,0.0,11.0,33,0.00,,,0.00,meteohub,2013-05-22 22:46:00,
2013-05-22 15:51:00,66.6,35.8,29.78,WNW,301,2.0,11.0,32,0.00,,,0.00,meteohub,2013-05-22 22:51:00,
2013-05-22 15:56:00,66.6,36.5,29.78,WNW,298,0.0,7.0,33,0.00,,,0.00,meteohub,2013-05-22 22:56:00,
2013-05-22 16:01:00,66.4,35.6,29.78,West,260,1.0,7.0,32,0.00,,,0.00,meteohub,2013-05-22 23:01:00,
2013-05-22 16:06:00,66.4,36.3,29.78,West,279,4.0,9.0,33,0.00,,,0.00,meteohub,2013-05-22 23:06:00,
2013-05-22 16:11:00,66.7,36.0,29.77,WNW,282,0.0,9.0,32,0.00,,,0.00,meteohub,2013-05-22 23:11:00,
2013-05-22 16:16:00,66.7,35.1,29.77,WNW,285,0.0,7.0,31,0.00,,,0.00,meteohub,2013-05-22 23:16:00,
2013-05-22 16:21:00,66.9,35.2,29.77,WNW,285,3.0,7.0,31,0.00,,,0.00,meteohub,2013-05-22 23:21:00,
2013-05-22 16:26:00,67.1,36.3,29.77,WNW,286,0.0,7.0,32,0.00,,,0.00,meteohub,2013-05-22 23:26:00,
2013-05-22 16:31:00,67.1,37.0,29.77,WNW,283,4.0,7.0,33,0.00,,,0.00,meteohub,2013-05-22 23:31:00,
2013-05-22 16:36:00,66.9,36.9,29.77,WNW,284,2.0,7.0,33,0.00,,,0.00,meteohub,2013-05-22 23:36:00,
2013-05-22 16:41:00,66.9,37.6,29.76,WNW,303,3.0,7.0,34,0.00,,,0.00,meteohub,2013-05-22 23:41:00,
2013-05-22 16:46:00,66.6,39.6,29.76,NW,306,4.0,13.0,37,0.00,,,0.00,meteohub,2013-05-22 23:46:00,
2013-05-22 16:51:00,66.2,39.9,29.76,WNW,290,4.0,13.0,38,0.00,,,0.00,meteohub,2013-05-22 23:51:00,
2013-05-22 16:56:00,66.0,41.0,29.77,WNW,295,0.0,13.0,40,0.00,,,0.00,meteohub,2013-05-22 23:56:00,
2013-05-22 17:01:00,66.0,41.0,29.77,WNW,295,0.0,7.0,40,0.00,,,0.00,meteohub,2013-05-23 00:01:00,
2013-05-22 17:06:00,66.0,39.7,29.77,West,270,1.0,6.0,38,0.00,,,0.00,meteohub,2013-05-23 00:06:00,
2013-05-22 17:11:00,65.8,41.5,29.76,West,273,0.0,6.0,41,0.00,,,0.00,meteohub,2013-05-23 00:11:00,
2013-05-22 17:16:00,65.7,41.4,29.76,West,275,0.0,6.0,41,0.00,,,0.00,meteohub,2013-05-23 00:16:00,
2013-05-22 17:21:00,65.7,41.4,29.76,West,280,2.0,6.0,41,0.00,,,0.00,meteohub,2013-05-23 00:21:00,
2013-05-22 17:26:00,65.3,41.0,29.75,West,279,1.0,5.0,41,0.00,,,0.00,meteohub,2013-05-23 00:26:00,
2013-05-22 17:31:00,65.1,41.5,29.75,West,279,1.0,5.0,42,0.00,,,0.00,meteohub,2013-05-23 00:31:00,
2013-05-22 17:36:00,65.1,38.8,29.75,West,277,1.0,5.0,38,0.00,,,0.00,meteohub,2013-05-23 00:36:00,
2013-05-22 17:41:00,64.9,38.1,29.76,West,264,3.0,6.0,37,0.00,,,0.00,meteohub,2013-05-23 00:41:00,
2013-05-22 17:46:00,64.8,37.9,29.76,West,261,2.0,9.0,37,0.00,,,0.00,meteohub,2013-05-23 00:46:00,
2013-05-22 17:51:00,64.6,37.8,29.76,WNW,282,1.0,9.0,37,0.00,,,0.00,meteohub,2013-05-23 00:51:00,
2013-05-22 17:56:00,64.0,37.2,29.75,West,281,1.0,9.0,37,0.00,,,0.00,meteohub,2013-05-23 00:56:00,
2013-05-22 18:01:00,63.9,37.8,29.75,WSW,245,0.0,6.0,38,0.00,,,0.00,meteohub,2013-05-23 01:01:00,
2013-05-22 18:07:00,63.7,37.6,29.75,WSW,258,2.0,8.0,38,0.00,,,0.00,meteohub,2013-05-23 01:07:00,
2013-05-22 18:12:00,63.3,38.7,29.76,West,259,0.0,8.0,40,0.00,,,0.00,meteohub,2013-05-23 01:12:00,
2013-05-22 18:17:00,63.1,38.5,29.76,West,260,0.0,8.0,40,0.00,,,0.00,meteohub,2013-05-23 01:17:00,
2013-05-22 18:22:00,63.0,38.3,29.76,West,259,0.0,5.0,40,0.00,,,0.00,meteohub,2013-05-23 01:22:00,
2013-05-22 18:27:00,62.8,38.1,29.75,West,266,1.0,4.0,40,0.00,,,0.00,meteohub,2013-05-23 01:27:00,
2013-05-22 18:32:00,62.6,37.9,29.75,WNW,288,1.0,6.0,40,0.00,,,0.00,meteohub,2013-05-23 01:32:00,
2013-05-22 18:37:00,62.4,37.8,29.75,West,261,6.0,7.0,40,0.00,,,0.00,meteohub,2013-05-23 01:37:00,
2013-05-22 18:42:00,62.2,38.3,29.76,NW,309,0.0,7.0,41,0.00,,,0.00,meteohub,2013-05-23 01:42:00,
2013-05-22 18:47:00,62.1,38.1,29.76,NW,325,3.0,10.0,41,0.00,,,0.00,meteohub,2013-05-23 01:47:00,
2013-05-22 18:52:00,61.9,37.9,29.76,West,273,2.0,10.0,41,0.00,,,0.00,meteohub,2013-05-23 01:52:00,
2013-05-22 18:57:00,61.5,37.6,29.76,West,273,1.0,5.0,41,0.00,,,0.00,meteohub,2013-05-23 01:57:00,
2013-05-22 19:02:00,61.3,38.1,29.76,West,273,0.0,5.0,42,0.00,,,0.00,meteohub,2013-05-23 02:02:00,
2013-05-22 19:07:00,61.2,38.5,29.76,West,265,0.0,3.0,43,0.00,,,0.00,meteohub,2013-05-23 02:07:00,
2013-05-22 19:12:00,60.8,38.1,29.77,West,263,3.0,4.0,43,0.00,,,0.00,meteohub,2013-05-23 02:12:00,
2013-05-22 19:17:00,60.4,37.8,29.77,West,260,3.0,4.0,43,0.00,,,0.00,meteohub,2013-05-23 02:17:00,
2013-05-22 19:22:00,60.3,38.3,29.77,West,271,1.0,4.0,44,0.00,,,0.00,meteohub,2013-05-23 02:22:00,
2013-05-22 19:27:00,60.1,38.7,29.76,West,271,0.0,6.0,45,0.00,,,0.00,meteohub,2013-05-23 02:27:00,
2013-05-22 19:32:00,59.7,38.8,29.76,West,271,0.0,6.0,46,0.00,,,0.00,meteohub,2013-05-23 02:32:00,
2013-05-22 19:37:00,59.4,39.2,29.76,West,271,0.0,6.0,47,0.00,,,0.00,meteohub,2013-05-23 02:37:00,
2013-05-22 19:42:00,59.2,39.0,29.76,West,271,0.0,3.0,47,0.00,,,0.00,meteohub,2013-05-23 02:42:00,
2013-05-22 19:47:00,58.8,39.2,29.76,West,271,0.0,3.0,48,0.00,,,0.00,meteohub,2013-05-23 02:47:00,
2013-05-22 19:52:00,58.5,38.8,29.76,WSW,240,0.0,5.0,48,0.00,,,0.00,meteohub,2013-05-23 02:52:00,
2013-05-22 19:57:00,58.1,39.0,29.77,WSW,248,4.0,9.0,49,0.00,,,0.00,meteohub,2013-05-23 02:57:00,
2013-05-22 20:02:00,57.7,38.7,29.77,NW,311,2.0,10.0,49,0.00,,,0.00,meteohub,2013-05-23 03:02:00,
2013-05-22 20:07:00,57.6,39.0,29.77,WNW,296,1.0,10.0,50,0.00,,,0.00,meteohub,2013-05-23 03:07:00,
2013-05-22 20:12:00,57.4,38.8,29.77,WNW,288,0.0,10.0,50,0.00,,,0.00,meteohub,2013-05-23 03:12:00,
2013-05-22 20:17:00,57.0,39.0,29.77,WNW,287,0.0,7.0,51,0.00,,,0.00,meteohub,2013-05-23 03:17:00,
2013-05-22 20:22:00,56.7,38.7,29.77,NNE,24,0.0,7.0,51,0.00,,,0.00,meteohub,2013-05-23 03:22:00,
2013-05-22 20:27:00,56.5,39.0,29.77,NNE,24,1.0,9.0,52,0.00,,,0.00,meteohub,2013-05-23 03:27:00,
2013-05-22 20:32:00,56.1,39.2,29.77,NNW,333,1.0,9.0,53,0.00,,,0.00,meteohub,2013-05-23 03:32:00,
2013-05-22 20:37:00,55.9,39.0,29.77,NW,321,2.0,6.0,53,0.00,,,0.00,meteohub,2013-05-23 03:37:00,
2013-05-22 20:42:00,55.8,39.4,29.77,NW,317,0.0,6.0,54,0.00,,,0.00,meteohub,2013-05-23 03:42:00,
2013-05-22 20:47:00,55.6,39.2,29.77,West,281,4.0,6.0,54,0.00,,,0.00,meteohub,2013-05-23 03:47:00,
2013-05-22 20:52:00,55.4,39.6,29.77,WNW,283,0.0,5.0,55,0.00,,,0.00,meteohub,2013-05-23 03:52:00,
2013-05-22 20:57:00,55.0,39.2,29.77,WNW,283,0.0,5.0,55,0.00,,,0.00,meteohub,2013-05-23 03:57:00,
2013-05-22 21:01:00,54.9,39.4,29.77,WNW,283,1.0,4.0,56,0.00,,,0.00,meteohub,2013-05-23 04:01:00,
2013-05-22 21:06:00,54.7,39.4,29.77,West,281,0.0,6.0,56,0.00,,,0.00,meteohub,2013-05-23 04:06:00,
2013-05-22 21:11:00,54.5,39.6,29.78,West,281,0.0,6.0,57,0.00,,,0.00,meteohub,2013-05-23 04:11:00,
2013-05-22 21:16:00,54.3,39.4,29.78,West,280,1.0,6.0,57,0.00,,,0.00,meteohub,2013-05-23 04:16:00,
2013-05-22 21:21:00,54.1,39.7,29.78,West,281,2.0,7.0,58,0.00,,,0.00,meteohub,2013-05-23 04:21:00,
2013-05-22 21:26:00,54.0,39.6,29.77,West,273,3.0,7.0,58,0.00,,,0.00,meteohub,2013-05-23 04:26:00,
2013-05-22 21:31:00,54.0,39.6,29.77,West,281,3.0,11.0,58,0.00,,,0.00,meteohub,2013-05-23 04:31:00,
2013-05-22 21:36:00,53.8,39.7,29.77,WSW,255,5.0,11.0,59,0.00,,,0.00,meteohub,2013-05-23 04:36:00,
2013-05-22 21:41:00,53.6,39.6,29.78,WNW,298,2.0,11.0,59,0.00,,,0.00,meteohub,2013-05-23 04:41:00,
2013-05-22 21:46:00,53.4,39.9,29.78,WNW,283,0.0,7.0,60,0.00,,,0.00,meteohub,2013-05-23 04:46:00,
2013-05-22 21:51:00,53.2,39.7,29.78,WNW,290,1.0,7.0,60,0.00,,,0.00,meteohub,2013-05-23 04:51:00,
2013-05-22 21:56:00,53.1,39.6,29.78,WNW,290,3.0,5.0,60,0.00,,,0.00,meteohub,2013-05-23 04:56:00,
2013-05-22 22:01:00,52.9,39.7,29.78,WNW,290,0.0,5.0,61,0.00,,,0.00,meteohub,2013-05-23 05:01:00,
2013-05-22 22:06:00,52.7,40.1,29.78,WSW,257,2.0,5.0,62,0.00,,,0.00,meteohub,2013-05-23 05:06:00,
2013-05-22 22:11:00,52.5,39.9,29.78,WSW,257,0.0,5.0,62,0.00,,,0.00,meteohub,2013-05-23 05:11:00,
2013-05-22 22:16:00,52.3,40.1,29.78,West,273,0.0,6.0,63,0.00,,,0.00,meteohub,2013-05-23 05:16:00,
2013-05-22 22:21:00,52.0,39.7,29.78,West,273,1.0,6.0,63,0.00,,,0.00,meteohub,2013-05-23 05:21:00,
2013-05-22 22:26:00,52.0,40.1,29.78,West,273,0.0,6.0,64,0.00,,,0.00,meteohub,2013-05-23 05:26:00,
2013-05-22 22:31:00,51.6,39.9,29.78,West,273,0.0,4.0,64,0.00,,,0.00,meteohub,2013-05-23 05:31:00,
2013-05-22 22:36:00,51.4,40.1,29.78,West,273,0.0,4.0,65,0.00,,,0.00,meteohub,2013-05-23 05:36:00,
2013-05-22 22:41:00,51.4,40.1,29.78,West,273,0.0,4.0,65,0.00,,,0.00,meteohub,2013-05-23 05:41:00,
2013-05-22 22:46:00,51.3,39.9,29.78,West,273,0.0,3.0,65,0.00,,,0.00,meteohub,2013-05-23 05:46:00,
2013-05-22 22:51:00,51.1,40.1,29.78,West,273,1.0,3.0,66,0.00,,,0.00,meteohub,2013-05-23 05:51:00,
2013-05-22 22:56:00,50.9,40.3,29.78,West,270,0.0,5.0,67,0.00,,,0.00,meteohub,2013-05-23 05:56:00,
2013-05-22 23:01:00,50.7,39.7,29.78,West,270,0.0,5.0,66,0.00,,,0.00,meteohub,2013-05-23 06:01:00,
2013-05-22 23:06:00,50.5,39.9,29.78,West,270,0.0,5.0,67,0.00,,,0.00,meteohub,2013-05-23 06:06:00,
2013-05-22 23:11:00,50.4,39.7,29.78,West,270,0.0,1.0,67,0.00,,,0.00,meteohub,2013-05-23 06:11:00,
2013-05-22 23:16:00,49.8,39.7,29.78,West,270,0.0,0.0,68,0.00,,,0.00,meteohub,2013-05-23 06:16:00,
2013-05-22 23:21:00,49.5,39.7,29.78,West,270,0.0,2.0,69,0.00,,,0.00,meteohub,2013-05-23 06:21:00,
2013-05-22 23:26:00,49.1,39.7,29.78,West,270,0.0,2.0,70,0.00,,,0.00,meteohub,2013-05-23 06:26:00,
2013-05-22 23:31:00,48.9,39.9,29.78,West,270,0.0,2.0,71,0.00,,,0.00,meteohub,2013-05-23 06:31:00,
2013-05-22 23:36:00,48.7,39.7,29.78,West,270,0.0,2.0,71,0.00,,,0.00,meteohub,2013-05-23 06:36:00,
2013-05-22 23:41:00,48.6,39.9,29.78,West,270,0.0,1.0,72,0.00,,,0.00,meteohub,2013-05-23 06:41:00,
2013-05-22 23:46:00,48.0,39.7,29.78,West,270,0.0,0.0,73,0.00,,,0.00,meteohub,2013-05-23 06:46:00,
2013-05-22 23:51:00,47.8,39.6,29.78,West,270,0.0,0.0,73,0.00,,,0.00,meteohub,2013-05-23 06:51:00,
2013-05-22 23:56:00,47.5,39.6,29.78,West,270,0.0,1.0,74,0.00,,,0.00,meteohub,2013-05-23 06:56:00,